This demonstration page uses our WeatherBlox Daily Observations layout. Learn more.

36.17497, -115.13722

Hourly Observations for September 6, 2019

Temp ( °F °C ) Dew Point ( °F °C ) Humidity (%) Winds ( mph kmh ) Pressure ( in mb ) Visibility ( mi km ) Precip ( " mm )
12:53 am 00:53 Clear 86 30 57 13.9 37 37 Calm 29.94 1014 10 16.09344 0 0
1:53 am 01:53 Clear 85 29.4 57 13.9 39 39 N 3 6 29.94 1014 10 16.09344 0 0
2:53 am 02:53 Clear 84 28.9 55 12.8 37 37 N 3 6 29.94 1014 10 16.09344 0 0
3:53 am 03:53 Clear 83 28.3 53 11.7 36 36 W 3 6 29.94 1014 10 16.09344 0 0
4:53 am 04:53 Clear 82 27.8 54 12.2 38 38 Calm 29.94 1014 10 16.09344 0 0
5:53 am 05:53 Clear 82 27.8 52 11.1 35 35 Calm 29.97 1015 10 16.09344 0 0
6:53 am 06:53 Sunny 83 28.3 52 11.1 34 34 Calm 29.97 1015 10 16.09344 0 0
7:53 am 07:53 Sunny 86 30 53 11.7 32 32 N 3 6 30 1016 10 16.09344 0 0
8:53 am 08:53 Sunny 88 31.1 53 11.7 30 30 E 5 7 30 1016 10 16.09344 0 0
9:53 am 09:53 Sunny 91 32.8 53 11.7 27 27 VRB 6 9 30 1016 10 16.09344 0 0
10:53 am 10:53 Sunny 94 34.4 53 11.7 25 25 E 7 11 30 1016 10 16.09344 0 0
11:53 am 11:53 Sunny 97 36.1 54 12.2 24 24 undefined N/A 29.97 1015 10 16.09344 0 0
12:53 pm 12:53 Sunny 98 36.7 53 11.7 22 22 SSE 9 15 29.94 1014 10 16.09344 0 0
1:53 pm 13:53 Sunny 101 38.3 52 11.1 19 19 SSE 13 20 29.91 1013 10 16.09344 0 0
2:53 pm 14:53 Sunny 103 39.4 49 9.4 16 16 SE 10 17 29.88 1012 10 16.09344 0 0
3:53 pm 15:53 Sunny 104 40 46 7.8 14 14 SW 10 17 29.85 1011 10 16.09344 0 0
4:53 pm 16:53 Sunny 103 39.4 47 8.3 15 15 SSW 8 13 29.85 1011 10 16.09344 0 0
5:53 pm 17:53 Sunny 102 38.9 47 8.3 15 15 SW 9 15 29.83 1010 10 16.09344 0 0
6:53 pm 18:53 Sunny 100 37.8 46 7.8 16 16 SW 14 22 29.83 1010 10 16.09344 0 0
7:53 pm 19:53 Clear 98 36.7 47 8.3 17 17 WSW 13 20 29.85 1011 10 16.09344 0 0
8:53 pm 20:53 Clear 96 35.6 49 9.4 20 20 WSW 8 13 29.85 1011 10 16.09344 0 0
9:53 pm 21:53 Clear 95 35 48 8.9 20 20 WSW 8 13 29.88 1012 10 16.09344 0 0
10:53 pm 22:53 Clear 94 34.4 48 8.9 21 21 NNE 3 6 29.88 1012 10 16.09344 0 0
11:53 pm 23:53 Clear 92 33.3 49 9.4 23 23 WSW 5 7 29.88 1012 10 16.09344 0 0

Powered by AerisWeather